AAL1211 KPHL-KPWM

Flight info

Callsign AAL1211
Flight time 1h 10m
Altitude 39000
Route DITCH T416 JIMEE WAVEY SHIPP CCC SCOGS3
Aircraft A320/M-SDE3FGHIRWY/LB1

Departure

Time 2026-05-08 16:32
Airport Philadelphia International Airport (KPHL)

Arrival

Time 2026-05-08 17:42
Airport Portland International Jetport (KPWM)
Time Latitude Longitude Altitude Speed Heading
2026-05-08 16:17 39.87464 -75.24807 22 ft 0 kts 19°
2026-05-08 16:23 39.87456 -75.24810 26 ft 4 kts 19°
2026-05-08 16:24 39.87430 -75.24822 23 ft 4 kts 20°
2026-05-08 16:24 39.87404 -75.24835 24 ft 4 kts 21°
2026-05-08 16:24 39.87380 -75.24848 25 ft 4 kts 25°
2026-05-08 16:24 39.87356 -75.24864 27 ft 4 kts 28°
2026-05-08 16:25 39.87335 -75.24877 25 ft 2 kts 64°
2026-05-08 16:25 39.87337 -75.24896 25 ft 3 kts 108°
2026-05-08 16:25 39.87342 -75.24924 23 ft 2 kts 97°
2026-05-08 16:25 39.87342 -75.24929 25 ft 0 kts 129°
2026-05-08 16:26 39.87340 -75.24927 25 ft 0 kts 129°
2026-05-08 16:27 39.87329 -75.24913 26 ft 4 kts 144°
2026-05-08 16:27 39.87303 -75.24901 25 ft 3 kts 166°
2026-05-08 16:27 39.87298 -75.24900 24 ft 0 kts 166°
2026-05-08 16:27 39.87293 -75.24898 23 ft 1 kts 166°
2026-05-08 16:28 39.87275 -75.24892 25 ft 8 kts 165°
2026-05-08 16:28 39.87199 -75.24863 23 ft 14 kts 166°
2026-05-08 16:28 39.87097 -75.24831 21 ft 15 kts 166°
2026-05-08 16:28 39.87007 -75.24773 20 ft 15 kts 155°
2026-05-08 16:29 39.86929 -75.24721 21 ft 8 kts 101°
2026-05-08 16:29 39.86943 -75.24627 22 ft 13 kts 76°
2026-05-08 16:29 39.86970 -75.24490 22 ft 18 kts 75°
2026-05-08 16:29 39.87006 -75.24312 25 ft 21 kts 75°
2026-05-08 16:30 39.87038 -75.24151 24 ft 16 kts 75°
2026-05-08 16:30 39.87017 -75.24055 23 ft 9 kts 168°
2026-05-08 16:30 39.86969 -75.24041 26 ft 7 kts 167°
2026-05-08 16:30 39.86918 -75.24021 24 ft 9 kts 144°
2026-05-08 16:31 39.86895 -75.23958 22 ft 0 kts 125°
2026-05-08 16:31 39.86860 -75.23934 24 ft 14 kts 166°
2026-05-08 16:31 39.86787 -75.23987 21 ft 27 kts 252°
2026-05-08 16:32 39.86654 -75.24649 26 ft 123 kts 255°
2026-05-08 16:32 39.86379 -75.26054 328 ft 178 kts 255°
2026-05-08 16:32 39.85861 -75.27310 781 ft 147 kts 216°
2026-05-08 16:32 39.84994 -75.27863 796 ft 133 kts 217°
2026-05-08 16:33 39.84193 -75.28577 906 ft 159 kts 219°
2026-05-08 16:33 39.83268 -75.29431 2071 ft 165 kts 219°
2026-05-08 16:33 39.82282 -75.30320 3069 ft 182 kts 218°
2026-05-08 16:33 39.81193 -75.31306 4065 ft 200 kts 218°
2026-05-08 16:34 39.79920 -75.32464 4446 ft 238 kts 218°
2026-05-08 16:34 39.78507 -75.33755 4729 ft 260 kts 216°
2026-05-08 16:34 39.76767 -75.34537 4903 ft 278 kts 183°
2026-05-08 16:34 39.74900 -75.33838 5293 ft 282 kts 146°
2026-05-08 16:35 39.73671 -75.31899 5972 ft 289 kts 112°
2026-05-08 16:35 39.73399 -75.29313 6562 ft 295 kts 78°
2026-05-08 16:35 39.74053 -75.26791 7176 ft 297 kts 62°
2026-05-08 16:35 39.74934 -75.24340 7828 ft 302 kts 60°
2026-05-08 16:36 39.75860 -75.21856 8478 ft 308 kts 60°
2026-05-08 16:36 39.76801 -75.19315 9172 ft 315 kts 61°
2026-05-08 16:36 39.77737 -75.16708 9845 ft 323 kts 63°
2026-05-08 16:36 39.78664 -75.14002 10352 ft 336 kts 64°
2026-05-08 16:37 39.79596 -75.11097 10578 ft 358 kts 66°
2026-05-08 16:37 39.80472 -75.08080 10843 ft 377 kts 69°
2026-05-08 16:37 39.81183 -75.04710 11146 ft 394 kts 77°
2026-05-08 16:37 39.81615 -75.01127 11381 ft 400 kts 84°
2026-05-08 16:38 39.81797 -74.97637 11392 ft 388 kts 88°
2026-05-08 16:38 39.81807 -74.94088 11409 ft 399 kts 92°
2026-05-08 16:38 39.81661 -74.90418 11460 ft 412 kts 96°
2026-05-08 16:38 39.81380 -74.86661 11635 ft 420 kts 98°
2026-05-08 16:39 39.80995 -74.82887 12007 ft 423 kts 100°
2026-05-08 16:39 39.80531 -74.79095 12372 ft 425 kts 102°
2026-05-08 16:39 39.80068 -74.75281 12747 ft 429 kts 97°
2026-05-08 16:39 39.79954 -74.71387 13139 ft 433 kts 91°
2026-05-08 16:40 39.80031 -74.67454 13519 ft 436 kts 88°
2026-05-08 16:40 39.80208 -74.63496 13913 ft 439 kts 86°
2026-05-08 16:40 39.80451 -74.59521 14240 ft 443 kts 85°
2026-05-08 16:40 39.80738 -74.55516 14579 ft 447 kts 84°
2026-05-08 16:41 39.81053 -74.51472 14910 ft 451 kts 84°
2026-05-08 16:41 39.81369 -74.47454 15264 ft 454 kts 85°
2026-05-08 16:41 39.81576 -74.43279 15611 ft 458 kts 88°
2026-05-08 16:42 39.81753 -74.34976 16328 ft 466 kts 90°
2026-05-08 16:42 39.81781 -74.30747 16696 ft 469 kts 91°
2026-05-08 16:42 39.81786 -74.26481 17057 ft 474 kts 92°
2026-05-08 16:42 39.81772 -74.22171 17446 ft 478 kts 92°
2026-05-08 16:43 39.81940 -74.17843 17829 ft 483 kts 79°
2026-05-08 16:43 39.83073 -74.13740 18231 ft 484 kts 59°
2026-05-08 16:43 39.84807 -74.09970 18564 ft 487 kts 53°
2026-05-08 16:43 39.86700 -74.06311 18936 ft 489 kts 51°
2026-05-08 16:44 39.88665 -74.02677 19306 ft 492 kts 50°
2026-05-08 16:44 39.90670 -73.99050 19687 ft 496 kts 50°
2026-05-08 16:44 39.92710 -73.95398 20041 ft 501 kts 50°
2026-05-08 16:44 39.94775 -73.91711 20436 ft 504 kts 50°
2026-05-08 16:45 39.96852 -73.88000 20850 ft 508 kts 50°
2026-05-08 16:45 39.98941 -73.84258 21253 ft 513 kts 50°
2026-05-08 16:45 40.01047 -73.80477 21629 ft 518 kts 50°
2026-05-08 16:45 40.03166 -73.76654 22046 ft 522 kts 50°
2026-05-08 16:46 40.05297 -73.72798 22467 ft 527 kts 50°
2026-05-08 16:46 40.07448 -73.68894 22907 ft 531 kts 50°
2026-05-08 16:46 40.09614 -73.64952 23306 ft 536 kts 50°
2026-05-08 16:46 40.11794 -73.60974 23730 ft 541 kts 50°
2026-05-08 16:47 40.13990 -73.56952 24129 ft 545 kts 50°
2026-05-08 16:47 40.16167 -73.52952 24538 ft 549 kts 50°
2026-05-08 16:47 40.18388 -73.48864 24905 ft 554 kts 50°
2026-05-08 16:47 40.20627 -73.44730 25325 ft 559 kts 50°
2026-05-08 16:48 40.22931 -73.40612 25743 ft 562 kts 48°
2026-05-08 16:48 40.25350 -73.36576 26170 ft 565 kts 46°
2026-05-08 16:48 40.27850 -73.32571 26573 ft 570 kts 45°
2026-05-08 16:48 40.30394 -73.28599 27235 ft 568 kts 43°
2026-05-08 16:49 40.33237 -73.25108 27897 ft 554 kts 28°
2026-05-08 16:49 40.36413 -73.22301 28611 ft 547 kts 22°
2026-05-08 16:49 40.39661 -73.19710 29264 ft 547 kts 20°
2026-05-08 16:49 40.42910 -73.17226 29953 ft 546 kts 19°
2026-05-08 16:50 40.46206 -73.14758 30574 ft 545 kts 18°
2026-05-08 16:50 40.49242 -73.12507 31165 ft 544 kts 18°
2026-05-08 16:50 40.52538 -73.10072 31752 ft 544 kts 18°
2026-05-08 16:50 40.55836 -73.07637 32379 ft 543 kts 18°
2026-05-08 16:51 40.59134 -73.05199 33025 ft 542 kts 18°
2026-05-08 16:51 40.62429 -73.02759 33671 ft 541 kts 18°
2026-05-08 16:51 40.65718 -73.00318 34211 ft 541 kts 17°
2026-05-08 16:51 40.68989 -72.97886 34753 ft 540 kts 18°
2026-05-08 16:52 40.72259 -72.95449 35314 ft 538 kts 18°
2026-05-08 16:52 40.75512 -72.93021 35874 ft 537 kts 18°
2026-05-08 16:52 40.78760 -72.90589 36391 ft 536 kts 18°
2026-05-08 16:52 40.81999 -72.88160 36929 ft 535 kts 18°
2026-05-08 16:53 40.88442 -72.83314 38019 ft 531 kts 18°
2026-05-08 16:53 40.91555 -72.80738 38500 ft 542 kts 26°
2026-05-08 16:53 40.94495 -72.77609 38752 ft 542 kts 31°
2026-05-08 16:54 40.97335 -72.74314 38862 ft 544 kts 33°
2026-05-08 16:54 41.00150 -72.70939 38909 ft 549 kts 33°
2026-05-08 16:54 41.05781 -72.64028 38932 ft 553 kts 34°
2026-05-08 16:55 41.11378 -72.57053 38934 ft 550 kts 34°
2026-05-08 16:55 41.16936 -72.50085 38913 ft 551 kts 34°
2026-05-08 16:56 41.22518 -72.43074 38912 ft 553 kts 35°
2026-05-08 16:56 41.28096 -72.36048 38914 ft 552 kts 35°
2026-05-08 16:57 41.33667 -72.29017 38918 ft 552 kts 35°
2026-05-08 16:57 41.39199 -72.22018 38925 ft 552 kts 35°
2026-05-08 16:58 41.41988 -72.18483 38799 ft 553 kts 35°
2026-05-08 16:58 41.44770 -72.14951 38309 ft 553 kts 35°
2026-05-08 16:58 41.47559 -72.11404 37250 ft 555 kts 35°
2026-05-08 16:58 41.50364 -72.07838 36041 ft 562 kts 35°
2026-05-08 16:59 41.52288 -72.05396 35245 ft 566 kts 35°
2026-05-08 16:59 41.55040 -72.01887 34605 ft 560 kts 35°
2026-05-08 16:59 41.57821 -71.98315 34128 ft 550 kts 35°
2026-05-08 16:59 41.60551 -71.94796 33657 ft 539 kts 35°
2026-05-08 17:00 41.63195 -71.91388 33067 ft 532 kts 34°
2026-05-08 17:00 41.65856 -71.87967 32397 ft 528 kts 34°
2026-05-08 17:00 41.68501 -71.84571 31710 ft 524 kts 35°
2026-05-08 17:00 41.71123 -71.81210 31039 ft 521 kts 35°
2026-05-08 17:01 41.73734 -71.77860 30423 ft 517 kts 35°
2026-05-08 17:01 41.76314 -71.74546 29783 ft 513 kts 35°
2026-05-08 17:01 41.78876 -71.71246 29129 ft 507 kts 35°
2026-05-08 17:01 41.81399 -71.67985 28535 ft 501 kts 36°
2026-05-08 17:02 41.83621 -71.64372 27786 ft 507 kts 53°
2026-05-08 17:02 41.85413 -71.60361 27074 ft 496 kts 58°
2026-05-08 17:02 41.87039 -71.56316 26101 ft 489 kts 60°
2026-05-08 17:02 41.88575 -71.52298 25236 ft 478 kts 61°
2026-05-08 17:03 41.90042 -71.48343 24418 ft 468 kts 61°
2026-05-08 17:03 41.91453 -71.44466 23627 ft 457 kts 62°
2026-05-08 17:03 41.92807 -71.40715 22728 ft 447 kts 62°
2026-05-08 17:03 41.94147 -71.36998 21837 ft 436 kts 62°
2026-05-08 17:04 41.95451 -71.33378 20989 ft 425 kts 63°
2026-05-08 17:04 41.96721 -71.29848 20165 ft 414 kts 63°
2026-05-08 17:04 41.97956 -71.26411 19318 ft 403 kts 64°
2026-05-08 17:04 41.99166 -71.23043 18519 ft 394 kts 65°
2026-05-08 17:05 42.00335 -71.19755 17652 ft 386 kts 65°
2026-05-08 17:05 42.01474 -71.16521 16670 ft 381 kts 65°
2026-05-08 17:05 42.02597 -71.13317 15752 ft 377 kts 65°
2026-05-08 17:05 42.03699 -71.10170 14665 ft 369 kts 65°
2026-05-08 17:06 42.04793 -71.07045 13702 ft 367 kts 64°
2026-05-08 17:06 42.05872 -71.03966 12751 ft 360 kts 64°
2026-05-08 17:06 42.06924 -71.00962 11893 ft 351 kts 63°
2026-05-08 17:06 42.07985 -70.97977 11499 ft 352 kts 59°
2026-05-08 17:07 42.09479 -70.95512 11238 ft 335 kts 31°
2026-05-08 17:07 42.11399 -70.93824 11110 ft 325 kts 22°
2026-05-08 17:07 42.13347 -70.92430 11054 ft 320 kts 18°
2026-05-08 17:07 42.15352 -70.91155 11032 ft 318 kts 16°
2026-05-08 17:08 42.17321 -70.90009 11016 ft 316 kts 14°
2026-05-08 17:08 42.19354 -70.88903 11011 ft 314 kts 13°
2026-05-08 17:08 42.21393 -70.87846 11002 ft 314 kts 12°
2026-05-08 17:08 42.23443 -70.86823 11000 ft 313 kts 11°
2026-05-08 17:09 42.25495 -70.85824 10998 ft 312 kts 11°
2026-05-08 17:09 42.27544 -70.84844 10999 ft 311 kts 11°
2026-05-08 17:09 42.29566 -70.83888 10997 ft 312 kts 11°
2026-05-08 17:09 42.31610 -70.82928 10992 ft 311 kts 11°
2026-05-08 17:10 42.33649 -70.81972 10992 ft 310 kts 11°
2026-05-08 17:10 42.35694 -70.81014 10999 ft 310 kts 11°
2026-05-08 17:10 42.37735 -70.80060 10993 ft 310 kts 11°
2026-05-08 17:10 42.39769 -70.79105 10991 ft 309 kts 11°
2026-05-08 17:11 42.41791 -70.78116 10992 ft 310 kts 12°
2026-05-08 17:11 42.43816 -70.77086 10990 ft 311 kts 13°
2026-05-08 17:11 42.45832 -70.76034 10991 ft 310 kts 13°
2026-05-08 17:11 42.47836 -70.74967 10988 ft 310 kts 14°
2026-05-08 17:12 42.49845 -70.73883 10991 ft 311 kts 14°
2026-05-08 17:12 42.51849 -70.72791 10989 ft 310 kts 14°
2026-05-08 17:12 42.53849 -70.71688 10989 ft 310 kts 15°
2026-05-08 17:12 42.55809 -70.70554 10987 ft 311 kts 16°
2026-05-08 17:13 42.57815 -70.69357 10987 ft 311 kts 16°
2026-05-08 17:13 42.59769 -70.68172 10986 ft 311 kts 17°
2026-05-08 17:13 42.61749 -70.66965 10994 ft 311 kts 17°
2026-05-08 17:13 42.63725 -70.65759 10991 ft 311 kts 17°
2026-05-08 17:14 42.65693 -70.64556 10990 ft 311 kts 17°
2026-05-08 17:14 42.67668 -70.63349 10991 ft 310 kts 17°
2026-05-08 17:14 42.69641 -70.62146 10992 ft 311 kts 17°
2026-05-08 17:14 42.71611 -70.60947 10988 ft 311 kts 17°
2026-05-08 17:15 42.73585 -70.59745 10991 ft 310 kts 17°
2026-05-08 17:15 42.75558 -70.58545 10987 ft 311 kts 17°
2026-05-08 17:15 42.77534 -70.57344 10985 ft 310 kts 17°
2026-05-08 17:15 42.79403 -70.56207 10993 ft 309 kts 17°
2026-05-08 17:16 42.81376 -70.55008 10989 ft 310 kts 17°
2026-05-08 17:16 42.83341 -70.53810 10976 ft 310 kts 17°
2026-05-08 17:16 42.85311 -70.52610 10985 ft 310 kts 17°
2026-05-08 17:16 42.87281 -70.51411 10982 ft 310 kts 17°
2026-05-08 17:17 42.89252 -70.50208 10983 ft 310 kts 17°
2026-05-08 17:17 42.91216 -70.49009 10981 ft 309 kts 17°
2026-05-08 17:17 42.93181 -70.47809 10983 ft 310 kts 17°
2026-05-08 17:17 42.95146 -70.46609 10986 ft 309 kts 17°
2026-05-08 17:18 42.97107 -70.45408 10972 ft 309 kts 17°
2026-05-08 17:18 42.99068 -70.44206 10983 ft 309 kts 17°
2026-05-08 17:18 43.01047 -70.43115 10980 ft 300 kts
2026-05-08 17:18 43.03022 -70.43234 11010 ft 277 kts 329°
2026-05-08 17:19 43.04440 -70.44719 11018 ft 252 kts 294°
2026-05-08 17:19 43.04801 -70.46934 11028 ft 241 kts 258°
2026-05-08 17:19 43.03943 -70.48878 11032 ft 250 kts 221°
2026-05-08 17:19 43.02356 -70.49958 10998 ft 258 kts 209°
2026-05-08 17:20 43.00688 -70.50860 10970 ft 257 kts 208°
2026-05-08 17:20 42.99011 -70.51723 10965 ft 258 kts 207°
2026-05-08 17:20 42.97325 -70.52569 10954 ft 258 kts 207°
2026-05-08 17:20 42.95651 -70.53457 10956 ft 257 kts 210°
2026-05-08 17:21 42.94032 -70.54468 10952 ft 255 kts 213°
2026-05-08 17:21 42.92474 -70.55603 10960 ft 253 kts 216°
2026-05-08 17:21 42.90969 -70.56841 10962 ft 252 kts 219°
2026-05-08 17:21 42.89510 -70.58160 10957 ft 251 kts 220°
2026-05-08 17:22 42.87970 -70.59249 10976 ft 263 kts 198°
2026-05-08 17:22 42.86087 -70.58931 11001 ft 292 kts 162°
2026-05-08 17:22 42.84501 -70.57092 11008 ft 313 kts 129°
2026-05-08 17:22 42.83752 -70.54274 11007 ft 325 kts 96°
2026-05-08 17:23 42.84065 -70.51231 11003 ft 327 kts 65°
2026-05-08 17:23 42.85355 -70.48768 11007 ft 317 kts 33°
2026-05-08 17:23 42.87264 -70.47500 11012 ft 299 kts
2026-05-08 17:23 42.89304 -70.47093 10983 ft 294 kts 358°
2026-05-08 17:24 42.91334 -70.46806 10970 ft 293 kts 357°
2026-05-08 17:24 42.93366 -70.46519 10965 ft 294 kts 358°
2026-05-08 17:24 42.95400 -70.46190 10964 ft 294 kts 359°
2026-05-08 17:24 42.97403 -70.45739 10959 ft 297 kts
2026-05-08 17:25 42.99414 -70.44988 10960 ft 302 kts 11°
2026-05-08 17:25 43.01376 -70.43937 10960 ft 305 kts 17°
2026-05-08 17:25 43.03205 -70.42714 10960 ft 308 kts 21°
2026-05-08 17:25 43.05075 -70.41255 10967 ft 310 kts 25°
2026-05-08 17:26 43.06894 -70.39672 10967 ft 311 kts 28°
2026-05-08 17:26 43.08683 -70.37991 10973 ft 312 kts 30°
2026-05-08 17:26 43.10445 -70.36245 10971 ft 312 kts 31°
2026-05-08 17:26 43.12177 -70.34461 10973 ft 312 kts 32°
2026-05-08 17:27 43.13900 -70.32639 10982 ft 313 kts 32°
2026-05-08 17:27 43.15634 -70.30829 10990 ft 312 kts 30°
2026-05-08 17:27 43.17380 -70.29137 10993 ft 310 kts 28°
2026-05-08 17:27 43.19171 -70.27492 10994 ft 310 kts 27°
2026-05-08 17:28 43.20983 -70.25879 10998 ft 310 kts 27°
2026-05-08 17:28 43.22800 -70.24283 10825 ft 309 kts 26°
2026-05-08 17:28 43.24602 -70.22716 10382 ft 305 kts 26°
2026-05-08 17:28 43.26390 -70.21176 9885 ft 302 kts 26°
2026-05-08 17:29 43.28155 -70.19654 9374 ft 298 kts 26°
2026-05-08 17:29 43.29907 -70.18163 8860 ft 294 kts 26°
2026-05-08 17:29 43.31637 -70.16703 8358 ft 289 kts 26°
2026-05-08 17:29 43.33344 -70.15273 7858 ft 286 kts 26°
2026-05-08 17:30 43.35011 -70.13881 7623 ft 273 kts 26°
2026-05-08 17:30 43.36591 -70.12561 7462 ft 259 kts 26°
2026-05-08 17:30 43.38069 -70.11319 7296 ft 246 kts 26°
2026-05-08 17:30 43.39498 -70.10116 7118 ft 236 kts 26°
2026-05-08 17:31 43.40889 -70.08941 6797 ft 233 kts 26°
2026-05-08 17:31 43.42267 -70.07786 6474 ft 231 kts 26°
2026-05-08 17:31 43.43636 -70.06650 6132 ft 229 kts 26°
2026-05-08 17:31 43.44997 -70.05527 5771 ft 227 kts 26°
2026-05-08 17:32 43.46347 -70.04418 5429 ft 225 kts 26°
2026-05-08 17:32 43.47690 -70.03321 5073 ft 224 kts 26°
2026-05-08 17:32 43.49028 -70.02238 4739 ft 222 kts 26°
2026-05-08 17:32 43.50362 -70.01166 4381 ft 221 kts 26°
2026-05-08 17:33 43.51687 -70.00106 4029 ft 220 kts 26°
2026-05-08 17:33 43.53011 -69.99054 3703 ft 218 kts 26°
2026-05-08 17:33 43.54323 -69.98014 3349 ft 218 kts 26°
2026-05-08 17:33 43.55635 -69.96980 3144 ft 218 kts 26°
2026-05-08 17:34 43.56938 -69.95954 3051 ft 215 kts 26°
2026-05-08 17:34 43.58239 -69.94929 3011 ft 216 kts 26°
2026-05-08 17:34 43.59537 -69.93906 2996 ft 214 kts 26°
2026-05-08 17:34 43.60930 -69.93332 3012 ft 208 kts 347°
2026-05-08 17:35 43.62125 -69.94237 3057 ft 198 kts 299°
2026-05-08 17:35 43.62450 -69.96043 3068 ft 196 kts 271°
2026-05-08 17:35 43.62476 -69.97886 3102 ft 181 kts 270°
2026-05-08 17:35 43.62493 -69.99511 3049 ft 156 kts 270°
2026-05-08 17:36 43.62519 -70.00810 3011 ft 126 kts 271°
2026-05-08 17:36 43.62552 -70.02016 3001 ft 126 kts 272°
2026-05-08 17:36 43.62599 -70.03226 3001 ft 126 kts 273°
2026-05-08 17:36 43.62660 -70.04433 2999 ft 126 kts 274°
2026-05-08 17:37 43.62731 -70.05640 3001 ft 126 kts 274°
2026-05-08 17:37 43.62810 -70.06809 2998 ft 126 kts 275°
2026-05-08 17:37 43.62898 -70.08006 2996 ft 125 kts 275°
2026-05-08 17:37 43.62991 -70.09197 2995 ft 125 kts 275°
2026-05-08 17:38 43.63092 -70.10371 2974 ft 126 kts 275°
2026-05-08 17:38 43.63178 -70.11644 2747 ft 139 kts 274°
2026-05-08 17:38 43.63257 -70.12927 2534 ft 131 kts 274°
2026-05-08 17:38 43.63336 -70.14161 2359 ft 127 kts 275°
2026-05-08 17:39 43.63418 -70.15375 2224 ft 128 kts 275°
2026-05-08 17:39 43.63499 -70.16596 2062 ft 127 kts 275°
2026-05-08 17:39 43.63586 -70.17812 1874 ft 127 kts 275°
2026-05-08 17:39 43.63669 -70.19025 1710 ft 126 kts 275°
2026-05-08 17:40 43.63749 -70.20221 1562 ft 124 kts 274°
2026-05-08 17:40 43.63831 -70.21431 1381 ft 127 kts 275°
2026-05-08 17:40 43.63914 -70.22650 1234 ft 128 kts 274°
2026-05-08 17:40 43.63996 -70.23861 1072 ft 127 kts 274°
2026-05-08 17:41 43.64074 -70.25063 842 ft 122 kts 275°
2026-05-08 17:41 43.64144 -70.26276 625 ft 129 kts 276°
2026-05-08 17:41 43.64234 -70.27494 410 ft 128 kts 277°
2026-05-08 17:41 43.64316 -70.28747 274 ft 130 kts 278°
2026-05-08 17:42 43.64399 -70.29970 70 ft 123 kts 278°
2026-05-08 17:42 43.64484 -70.31010 63 ft 87 kts 275°
2026-05-08 17:42 43.64515 -70.31484 62 ft 26 kts 272°
2026-05-08 17:42 43.64561 -70.31583 70 ft 9 kts 346°
2026-05-08 17:43 43.64597 -70.31581 64 ft 0 kts
2026-05-08 17:43 43.64601 -70.31580 64 ft 1 kts
2026-05-08 17:43 43.64616 -70.31562 62 ft 3 kts 43°
2026-05-08 17:44 43.64624 -70.31549 65 ft 1 kts 60°
2026-05-08 17:44 43.64624 -70.31501 67 ft 8 kts 92°
2026-05-08 17:44 43.64618 -70.31402 66 ft 13 kts 96°
2026-05-08 17:44 43.64610 -70.31272 61 ft 8 kts 84°
2026-05-08 17:45 43.64634 -70.31242 61 ft 3 kts 19°
2026-05-08 17:45 43.64655 -70.31232 59 ft 5 kts 18°
2026-05-08 17:45 43.64676 -70.31221 57 ft 0 kts 22°